DW1114 Weather Reports


Display with metric or nautical units.
time (UTC)temp
F
wind
direction
speed
MPH
gust
MPH
rain 1hr
in
rain 24hr
in
rain mn
in
humidity
%
barometer
mb
20260510123403 56 79 3.0 6.0 0.00 0.00 0.00 1013.6
20260510122903 56 51 3.0 7.0 0.00 0.00 0.00 1013.6
20260510122424 56 22 2.0 7.0 0.00 0.00 0.00 1013.2
20260510121903 56 27 1.0 5.0 0.00 0.00 0.00 1013.2
20260510121424 55 40 2.0 5.0 0.00 0.00 0.00 1013.6
20260510120903 55 29 2.0 5.0 0.00 0.00 0.00 1013.2
20260510120424 55 37 1.0 5.0 0.00 0.00 0.00 1013.2
20260510115903 55 32 3.0 5.0 0.00 0.00 0.00 1013.6
20260510115403 55 23 2.0 4.0 0.00 0.00 0.00 1012.9
20260510114903 55 36 2.0 5.0 0.00 0.00 0.00 1012.9
20260510114403 55 16 1.0 5.0 0.00 0.00 0.00 1012.9
20260510113903 55 37 2.0 5.0 0.00 0.00 0.00 1013.6
20260510113403 55 26 2.0 5.0 0.00 0.00 0.00 1013.2
20260510112902 55 34 2.0 5.0 0.00 0.00 0.00 1013.2
20260510112424 55 351 1.0 6.0 0.00 0.00 0.00 1013.2
20260510111924 55 30 0.0 6.0 0.00 0.00 0.00 1013.2
20260510111424 55 35 1.0 6.0 0.00 0.00 0.00 1012.9
20260510110903 55 30 2.0 6.0 0.00 0.00 0.00 1012.2
20260510110403 55 359 0.0 5.0 0.00 0.00 0.00 1012.2
20260510105924 55 0 1.0 5.0 0.00 0.00 0.00 1012.2
20260510105403 55 5 0.0 4.0 0.00 0.00 0.00 1011.9
20260510104903 56 19 1.0 6.0 0.00 0.00 0.00 1012.6
20260510104402 56 344 1.0 6.0 0.00 0.00 0.00 1011.9
20260510103924 56 9 2.0 5.0 0.00 0.00 0.00 1012.6
20260510103403 56 18 1.0 8.0 0.00 0.00 0.00 1012.2
20260510102903 56 23 2.0 8.0 0.00 0.00 0.00 1011.9
20260510102403 56 345 1.0 5.0 0.00 0.00 0.00 1011.9
20260510101903 56 34 3.0 5.0 0.00 0.00 0.00 1011.9
20260510101403 56 1 1.0 5.0 0.00 0.00 0.00 1011.5
20260510100903 56 358 1.0 5.0 0.00 0.00 0.00 1011.9
20260510100424 56 25 2.0 5.0 0.00 0.00 0.00 1011.5
20260510095904 56 345 2.0 5.0 0.00 0.00 0.00 1011.5
20260510095424 56 355 1.0 3.0 0.00 0.00 0.00 1011.5
20260510094903 57 0 0.0 3.0 0.00 0.00 0.00 1012.2
20260510094402 57 12 0.0 7.0 0.00 0.00 0.00 1011.5
20260510093903 57 27 2.0 7.0 0.00 0.00 0.00 1011.9
20260510093403 57 347 2.0 4.0 0.00 0.00 0.00 1011.2
20260510092924 57 10 1.0 3.0 0.00 0.00 0.00 1011.5
20260510092403 57 356 1.0 3.0 0.00 0.00 0.00 1011.2
20260510091903 58 331 0.0 7.0 0.00 0.00 0.00 1011.2
20260510091403 58 44 2.0 7.0 0.00 0.00 0.00 1010.9
20260510090904 58 36 2.0 5.0 0.00 0.00 0.00 1010.9
20260510090403 58 18 2.0 6.0 0.00 0.00 0.00 1010.9
20260510085903 58 1 2.0 6.0 0.00 0.00 0.00 1010.5
20260510085403 58 11 2.0 7.0 0.00 0.00 0.00 1010.5
20260510084903 58 355 2.0 7.0 0.00 0.00 0.00 1010.5
20260510084403 58 336 2.0 6.0 0.00 0.00 0.00 1010.5
20260510083924 59 345 2.0 6.0 0.00 0.00 0.00 1010.5
20260510083424 59 342 1.0 7.0 0.00 0.00 0.00 1010.5
20260510082903 59 355 3.0 8.0 0.00 0.00 0.00 1010.5
20260510082425 59 7 3.0 8.0 0.00 0.00 0.00 1010.5
20260510081903 59 342 2.0 7.0 0.00 0.00 0.00 1010.5
20260510081403 59 345 1.0 8.0 0.00 0.00 0.00 1010.5
20260510080925 60 339 3.0 8.0 0.00 0.00 0.00 1010.2
20260510080403 60 342 3.0 7.0 0.00 0.00 0.00 1009.9
20260510075903 60 328 2.0 8.0 0.00 0.00 0.00 1009.9
20260510075403 60 345 3.0 8.0 0.00 0.00 0.00 1010.9
20260510074902 59 321 2.0 7.0 0.00 0.00 0.00 1010.2
20260510074403 59 292 0.0 1.0 0.00 0.00 0.00 1009.5
20260510073903 59 12 0.0 3.0 0.00 0.00 0.00 1009.9
20260510073403 59 338 0.0 6.0 0.00 0.00 0.00 1009.9
20260510072903 59 211 0.0 6.0 0.00 0.00 0.00 1009.5
20260510072403 59 213 0.0 6.0 0.00 0.00 0.00 1009.5
20260510071903 59 314 0.0 8.0 0.00 0.00 0.00 1009.9
20260510071404 60 358 0.0 8.0 0.00 0.00 0.00 1009.5
20260510070903 60 194 0.0 7.0 0.00 0.00 0.00 1010.2
20260510070403 60 202 0.0 7.0 0.00 0.00 0.00 1010.2
20260510065903 60 9 1.0 7.0 0.00 0.00 0.00 1009.9
20260510065403 61 158 0.0 5.0 0.00 0.00 0.00 1009.9
20260510064904 61 91 0.0 2.0 0.00 0.00 0.00 1009.9
20260510064424 61 187 0.0 6.0 0.00 0.00 0.00 1010.2
20260510063903 61 180 0.0 6.0 0.00 0.00 0.00 1009.9
20260510063403 61 202 0.0 3.0 0.00 0.00 0.00 1009.9
20260510062903 61 270 0.0 4.0 0.00 0.00 0.00 1010.5
20260510062403 61 315 0.0 6.0 0.00 0.00 0.00 1009.9
20260510061903 62 181 0.0 6.0 0.00 0.00 0.00 1009.9
20260510061403 62 192 0.0 6.0 0.00 0.00 0.00 1009.9
20260510060903 62 183 0.0 6.0 0.00 0.00 0.00 1010.2
20260510060424 62 298 0.0 6.0 0.00 0.00 0.00 1010.2
20260510055903 62 338 0.0 6.0 0.00 0.00 0.00 1010.2
20260510055424 62 149 1.0 7.0 0.00 0.00 0.00 1009.9
20260510054903 62 209 0.0 7.0 0.00 0.00 0.00 1010.2
20260510053403 63 169 0.0 6.0 0.00 0.00 0.00 1010.2
20260510052903 63 296 0.0 3.0 0.00 0.00 0.00 1010.2
20260510052403 63 26 0.0 6.0 0.00 0.00 0.00 1010.2
20260510051903 63 275 2.0 7.0 0.00 0.00 0.00 1009.9
20260510051403 63 329 2.0 7.0 0.00 0.00 0.00 1010.2
20260510050902 63 312 3.0 6.0 0.00 0.00 0.00 1010.5
20260510050424 63 177 0.0 4.0 0.00 0.00 0.00 1009.9
20260510045945 63 226 0.0 4.0 0.00 0.00 0.00 1009.5
20260510045445 63 238 1.0 5.0 0.00 0.00 0.00 1009.9
20260510044903 63 284 0.0 5.0 0.00 0.00 0.00 1009.9
20260510044403 64 207 1.0 4.0 0.00 0.00 0.00 1010.2
20260510043903 64 233 0.0 4.0 0.00 0.00 0.00 1009.5
20260510043403 64 212 1.0 3.0 0.00 0.00 0.00 1009.5
20260510042903 64 247 0.0 5.0 0.00 0.00 0.00 1010.2
20260510042423 64 244 2.0 5.0 0.00 0.00 0.00 1009.9
20260510041903 64 265 0.0 4.0 0.00 0.00 0.00 1009.9
20260510041403 64 219 1.0 3.0 0.00 0.00 0.00 1009.9
20260510040903 63 215 0.0 6.0 0.00 0.00 0.00 1009.9
20260510040404 63 210 0.0 6.0 0.00 0.00 0.00 1009.9
20260510035903 63 246 0.0 5.0 0.00 0.00 0.00 1009.9
20260510035403 63 238 0.0 4.0 0.00 0.00 0.00 1009.5
20260510034903 63 225 0.0 3.0 0.00 0.00 0.00 1009.2
20260510034426 63 209 1.0 6.0 0.00 0.00 0.00 1009.5
20260510033902 63 281 0.0 6.0 0.00 0.00 0.00 1009.2
20260510033403 64 245 0.0 3.0 0.00 0.00 0.00 1009.2
20260510032902 63 207 1.0 5.0 0.00 0.00 0.00 1009.2
20260510032403 64 232 2.0 5.0 0.00 0.00 0.00 1009.2
20260510031904 63 258 0.0 5.0 0.00 0.00 0.00 1009.2
20260510031402 64 292 0.0 6.0 0.00 0.00 0.00 1009.5
20260510030903 64 258 0.0 6.0 0.00 0.00 0.00 1010.2
20260510030403 64 197 0.0 3.0 0.00 0.00 0.00 1009.5
20260510025903 64 220 1.0 3.0 0.00 0.00 0.00 1009.5
20260510025403 64 252 1.0 4.0 0.00 0.00 0.00 1009.5
20260510024923 64 212 1.0 6.0 0.00 0.00 0.00 1009.5
20260510024403 64 259 1.0 6.0 0.00 0.00 0.00 1009.2
20260510023903 64 178 0.0 5.0 0.00 0.00 0.00 1008.8
20260510023403 65 206 0.0 9.0 0.00 0.00 0.00 1009.5
20260510022924 65 261 2.0 9.0 0.00 0.00 0.00 1009.2
20260510022403 65 257 1.0 3.0 0.00 0.00 0.00 1009.2
20260510021903 65 262 0.0 4.0 0.00 0.00 0.00 1009.9
20260510021424 66 235 2.0 7.0 0.00 0.00 0.00 1009.5
20260510020903 66 247 0.0 7.0 0.00 0.00 0.00 1009.2
20260510020403 66 217 0.0 5.0 0.00 0.00 0.00 1009.2
20260510015903 66 149 1.0 5.0 0.00 0.00 0.00 1008.5
20260510015424 66 219 1.0 5.0 0.00 0.00 0.00 1008.8
20260510014903 67 214 1.0 4.0 0.00 0.00 0.00 1008.5
20260510014403 67 226 1.0 4.0 0.00 0.00 0.00 1008.5
20260510013924 67 206 2.0 4.0 0.00 0.00 0.00 1008.8
20260510013402 67 256 1.0 4.0 0.00 0.00 0.00 1008.5
20260510012903 67 223 2.0 6.0 0.00 0.00 0.00 1008.2
20260510012403 67 225 0.0 9.0 0.00 0.00 0.00 1008.8
20260510011903 67 212 1.0 9.0 0.00 0.00 0.00 1008.5
20260510011403 67 186 0.0 2.0 0.00 0.00 0.00 1008.8
20260510010924 67 202 0.0 3.0 0.00 0.00 0.00 1009.2
20260510010403 67 215 2.0 3.0 0.00 0.00 0.00 1009.2
20260510005903 67 213 0.0 3.0 0.00 0.00 0.00 1007.8
20260510005403 67 226 0.0 3.0 0.00 0.00 0.00 1007.8
20260510004903 68 237 0.0 4.0 0.00 0.00 0.00 1007.5
20260510004402 68 16 0.0 4.0 0.00 0.00 0.00 1007.8
20260510003903 68 209 0.0 2.0 0.00 0.00 0.00 1007.8
20260510003403 68 211 1.0 3.0 0.00 0.00 0.00 1008.2
20260510002903 69 303 0.0 3.0 0.00 0.00 0.00 1007.8
20260510002403 69 215 1.0 4.0 0.00 0.00 0.00 1007.5
20260510001924 69 202 1.0 4.0 0.00 0.00 0.00 1007.8
20260510001403 69 208 2.0 7.0 0.00 0.00 0.00 1007.1
20260510000903 70 246 2.0 7.0 0.00 0.00 0.00 1007.8
20260510000404 70 226 2.0 9.0 0.00 0.00 0.00 1007.5
20260509235903 71 253 3.0 9.0 0.00 0.00 0.00 1007.1
20260509235403 71 213 2.0 7.0 0.00 0.00 0.00 1007.1
20260509234945 71 212 1.0 9.0 0.00 0.00 0.00 1007.1
20260509234403 71 246 4.0 9.0 0.00 0.00 0.00 1007.5
20260509233904 71 232 3.0 9.0 0.00 0.00 0.00 1007.1
20260509233403 72 235 3.0 9.0 0.00 0.00 0.00 1007.5
20260509232903 72 217 4.0 9.0 0.00 0.00 0.00 1007.1
20260509232403 73 207 3.0 12.0 0.00 0.00 0.00 1007.1
20260509231903 73 202 2.0 14.0 0.00 0.00 0.00 1006.5
20260509231403 73 268 5.0 14.0 0.00 0.00 0.00 1007.1
20260509230903 73 218 3.0 8.0 0.00 0.00 0.00 1006.8
20260509230402 73 224 3.0 11.0 0.00 0.00 0.00 1006.8
20260509225903 74 229 4.0 12.0 0.00 0.00 0.00 1006.5
20260509225403 74 281 6.0 12.0 0.00 0.00 0.00 1006.5
20260509224903 74 230 2.0 12.0 0.00 0.00 0.00 1006.5
20260509224403 73 271 6.0 12.0 0.00 0.00 0.00 1006.8
20260509223903 74 224 4.0 10.0 0.00 0.00 0.00 1006.8
20260509223403 74 198 3.0 12.0 0.00 0.00 0.00 1007.1
20260509222945 74 239 5.0 12.0 0.00 0.00 0.00 1006.8
20260509222424 73 198 3.0 10.0 0.00 0.00 0.00 1006.8
20260509221903 72 229 5.0 10.0 0.00 0.00 0.00 1006.5
20260509221445 72 207 3.0 7.0 0.00 0.00 0.00 1006.8
20260509220903 72 207 3.0 8.0 0.00 0.00 0.00 1006.5
20260509220403 72 206 4.0 12.0 0.00 0.00 0.00 1006.1
20260509215904 72 231 5.0 12.0 0.00 0.00 0.00 1006.5
20260509215403 73 205 5.0 13.0 0.00 0.00 0.00 1006.1
20260509214945 73 208 2.0 13.0 0.00 0.00 0.00 1006.1
20260509213403 73 212 3.0 9.0 0.00 0.00 0.00 1006.5
20260509212903 72 197 4.0 9.0 0.00 0.00 0.00 1006.5
20260509212403 72 212 4.0 10.0 0.00 0.00 0.00 1006.8
20260509211903 72 214 4.0 10.0 0.00 0.00 0.00 1007.5
20260509211403 72 198 3.0 7.0 0.00 0.00 0.00 1006.5
20260509210924 73 220 3.0 7.0 0.00 0.00 0.00 1006.5
20260509210403 73 210 3.0 7.0 0.00 0.00 0.00 1006.1
20260509205403 72 220 2.0 10.0 0.00 0.00 0.00 1006.8
20260509204924 72 210 3.0 10.0 0.00 0.00 0.00 1006.8
20260509204403 72 194 3.0 12.0 0.00 0.00 0.00 1006.8
20260509203903 72 198 4.0 12.0 0.00 0.00 0.00 1007.5
20260509203403 71 195 5.0 12.0 0.00 0.00 0.00 1007.1
20260509202924 71 203 5.0 12.0 0.00 0.00 0.00 1006.8
20260509202425 71 192 4.0 10.0 0.00 0.00 0.00 1007.1
20260509201903 71 192 4.0 10.0 0.00 0.00 0.00 1006.5
20260509201403 71 193 5.0 9.0 0.00 0.00 0.00 1006.8
20260509200903 71 198 4.0 9.0 0.00 0.00 0.00 1007.1
20260509200403 71 210 4.0 11.0 0.00 0.00 0.00 1006.5
20260509195904 70 198 4.0 11.0 0.00 0.00 0.00 1006.8
20260509195403 70 190 5.0 9.0 0.00 0.00 0.00 1007.1
20260509194924 71 198 4.0 9.0 0.00 0.00 0.00 1006.8
20260509194403 70 206 3.0 9.0 0.00 0.00 0.00 1007.8
20260509193903 70 199 3.0 8.0 0.00 0.00 0.00 1007.1
20260509193403 70 190 4.0 9.0 0.00 0.00 0.00 1007.1
20260509192903 70 211 3.0 9.0 0.00 0.00 0.00 1007.8
20260509192403 70 194 4.0 12.0 0.00 0.00 0.00 1006.8
20260509191903 69 239 5.0 12.0 0.00 0.00 0.00 1007.1
20260509191424 69 210 4.0 12.0 0.00 0.00 0.00 1007.8
20260509190924 69 236 5.0 12.0 0.00 0.00 0.00 1007.5
20260509190425 69 209 4.0 12.0 0.00 0.00 0.00 1007.8
20260509185902 69 204 5.0 12.0 0.00 0.00 0.00 1007.5
20260509185403 69 215 3.0 12.0 0.00 0.00 0.00 1007.8
20260509184903 69 273 6.0 12.0 0.00 0.00 0.00 1007.5
20260509184403 69 202 4.0 12.0 0.00 0.00 0.00 1007.5
20260509183903 68 219 2.0 14.0 0.00 0.00 0.00 1007.1
20260509183403 68 270 6.0 14.0 0.00 0.00 0.00 1007.1
20260509182903 69 237 4.0 10.0 0.00 0.00 0.00 1007.5
20260509182403 68 204 3.0 10.0 0.00 0.00 0.00 1007.5
20260509181903 68 258 2.0 7.0 0.00 0.00 0.00 1007.5
20260509181402 68 207 3.0 10.0 0.00 0.00 0.00 1007.5
20260509180903 68 208 3.0 10.0 0.00 0.00 0.00 1008.2
20260509180425 68 216 3.0 10.0 0.00 0.00 0.00 1007.1
20260509175903 67 233 2.0 12.0 0.00 0.00 0.00 1007.8
20260509175403 67 287 4.0 12.0 0.00 0.00 0.00 1007.5
20260509174903 66 261 4.0 10.0 0.00 0.00 0.00 1007.1
20260509174403 67 226 3.0 10.0 0.00 0.00 0.00 1007.5
20260509173903 67 205 4.0 10.0 0.00 0.00 0.00 1007.8
20260509173403 67 207 4.0 8.0 0.00 0.00 0.00 1007.8
20260509172903 66 270 4.0 8.0 0.00 0.00 0.00 1007.5
20260509172403 67 215 4.0 10.0 0.00 0.00 0.00 1007.5
20260509171903 66 190 3.0 10.0 0.00 0.00 0.00 1007.8
20260509171403 66 232 4.0 12.0 0.00 0.00 0.00 1007.8
20260509170924 65 273 7.0 12.0 0.00 0.00 0.00 1007.8
20260509170404 65 240 5.0 9.0 0.00 0.00 0.00 1007.5
20260509165903 65 218 3.0 16.0 0.00 0.00 0.00 1007.8
20260509165403 64 263 5.0 16.0 0.00 0.00 0.00 1007.8
20260509164925 65 253 4.0 11.0 0.00 0.00 0.00 1007.8
20260509164424 65 216 3.0 10.0 0.00 0.00 0.00 1007.8
20260509163903 64 249 4.0 15.0 0.00 0.00 0.00 1007.8
20260509163403 64 260 6.0 15.0 0.00 0.00 0.00 1008.5
20260509161903 64 257 4.0 13.0 0.00 0.00 0.00 1007.8
20260509161402 64 273 5.0 12.0 0.00 0.00 0.00 1008.2
20260509160903 64 286 5.0 12.0 0.00 0.00 0.00 1008.2
20260509160424 64 205 2.0 11.0 0.00 0.00 0.00 1007.5
20260509155903 64 210 4.0 11.0 0.00 0.00 0.00 1007.1
20260509155403 63 202 3.0 7.0 0.00 0.00 0.00 1007.1
20260509154903 62 201 3.0 10.0 0.00 0.00 0.00 1008.2
20260509154403 61 276 5.0 10.0 0.00 0.00 0.00 1007.5
20260509153903 62 260 3.0 7.0 0.00 0.00 0.00 1008.2
20260509153403 61 200 2.0 12.0 0.00 0.00 0.00 1007.5
20260509152903 61 227 3.0 12.0 0.00 0.00 0.00 1007.1
20260509152404 62 238 3.0 8.0 0.00 0.00 0.00 1007.5
20260509151903 61 247 4.0 7.0 0.00 0.00 0.00 1007.5
20260509151403 61 217 2.0 6.0 0.00 0.00 0.00 1007.5
20260509150903 60 211 2.0 7.0 0.00 0.00 0.00 1007.5
20260509150402 60 254 3.0 9.0 0.00 0.00 0.00 1007.5
20260509145903 60 276 5.0 9.0 0.00 0.00 0.00 1007.8
20260509145423 60 259 2.0 10.0 0.00 0.00 0.00 1007.1
20260509144903 59 289 6.0 10.0 0.00 0.00 0.00 1007.8
20260509144403 60 261 2.0 6.0 0.00 0.00 0.00 1007.8
20260509143924 60 204 3.0 5.0 0.00 0.00 0.00 1006.8
20260509143403 60 205 3.0 6.0 0.00 0.00 0.00 1006.8
20260509142903 59 169 3.0 6.0 0.00 0.00 0.00 1007.5
20260509142424 59 220 2.0 6.0 0.00 0.00 0.00 1007.5
20260509141924 59 184 3.0 7.0 0.00 0.00 0.00 1007.5
20260509141403 59 221 3.0 7.0 0.00 0.00 0.00 1007.1
20260509140903 58 188 3.0 7.0 0.00 0.00 0.00 1007.5
20260509140424 58 196 3.0 6.0 0.00 0.00 0.00 1007.1
20260509135903 57 234 1.0 4.0 0.00 0.00 0.00 1007.8
20260509135403 57 207 2.0 8.0 0.00 0.00 0.00 1006.8
20260509134926 57 225 2.0 8.0 0.00 0.00 0.00 1007.1
20260509133404 57 200 3.0 6.0 0.00 0.00 0.00 1007.1
20260509132925 58 189 2.0 5.0 0.00 0.00 0.00 1007.1
20260509132403 57 242 1.0 5.0 0.00 0.00 0.00 1007.1
20260509131903 56 204 2.0 5.0 0.00 0.00 0.00 1007.5
20260509131402 57 228 1.0 6.0 0.00 0.00 0.00 1007.5
20260509130903 56 236 0.0 6.0 0.00 0.00 0.00 1007.1
20260509130403 56 266 2.0 6.0 0.00 0.00 0.00 1007.1
20260509125903 56 268 1.0 6.0 0.00 0.00 0.00 1008.2
20260509125403 56 276 2.0 6.0 0.00 0.00 0.00 1007.8
20260509124944 55 204 0.0 6.0 0.00 0.00 0.00 1007.5
20260509124403 55 243 2.0 3.0 0.00 0.00 0.00 1007.8
20260509123924 55 285 1.0 6.0 0.00 0.00 0.00 1007.1